Location: Newark
(39.0622°N, 106.5590°E)
Time: 18:20:51
(UTC+00:00)

Vanguard 2 Rocket - Pass Details

Date: 29 January 2020
Orbit: 554 x 3326 km, 32.9° (Epoch: 16 February)

Event Time Altitude Azimuth Distance (km) Brightness Sun altitude
Rises 01:46:04 0° 266° (W) 3,411 9.4 16.1°
Reaches altitude 10° 01:48:32 10° 254° (WSW) 2,731 9.1 16.4°
Maximum altitude 01:54:05 28° 197° (SSW) 2,289 9.4 17.2°
Drops below altitude 10° 02:02:36 10° 145° (SE) 4,309 12.4 18.5°
Sets 02:07:43 0° 136° (SE) 5,830 12.7 19.2°
